TimeEST,TemperatureF,Dew PointF,Humidity,Sea Level PressureIn,VisibilityMPH,Wind Direction,Wind SpeedMPH,Gust SpeedMPH,PrecipitationIn,Events,Conditions,WindDirDegrees,DateUTC
12:53 AM,21.9,19.9,92,30.38,10.0,NNW,3.5,-,N/A,,Clear,330,2013-03-09 05:53:00
1:53 AM,21.9,19.9,92,30.37,10.0,Calm,Calm,-,N/A,,Clear,0,2013-03-09 06:53:00
2:53 AM,21.0,19.0,92,30.36,10.0,Calm,Calm,-,N/A,,Clear,0,2013-03-09 07:53:00
3:53 AM,18.0,15.1,88,30.37,10.0,WNW,3.5,-,N/A,,Clear,300,2013-03-09 08:53:00
4:53 AM,19.0,17.1,92,30.38,10.0,NNW,3.5,-,N/A,,Clear,330,2013-03-09 09:53:00
5:53 AM,17.1,15.1,92,30.39,10.0,Calm,Calm,-,N/A,,Clear,0,2013-03-09 10:53:00
6:19 AM,17.1,15.1,92,30.38,10.0,NW,3.5,-,N/A,,Scattered Clouds,310,2013-03-09 11:19:00
6:28 AM,17.1,16.0,96,30.38,10.0,Calm,Calm,-,N/A,,Mostly Cloudy,0,2013-03-09 11:28:00
6:53 AM,19.0,17.1,92,30.41,3.0,Calm,Calm,-,N/A,,Overcast,0,2013-03-09 11:53:00
7:02 AM,19.0,18.0,96,30.39,2.5,Calm,Calm,-,N/A,,Overcast,0,2013-03-09 12:02:00
7:10 AM,19.9,19.0,96,30.39,0.8,Calm,Calm,-,N/A,,Overcast,0,2013-03-09 12:10:00
7:31 AM,21.0,19.9,96,30.39,0.2,NW,3.5,-,N/A,Fog,Light Freezing Fog,310,2013-03-09 12:31:00
7:53 AM,21.0,19.9,96,30.42,0.2,Calm,Calm,-,N/A,Fog,Light Freezing Fog,0,2013-03-09 12:53:00
8:43 AM,21.9,21.9,100,30.40,0.5,NW,3.5,-,N/A,Fog,Light Freezing Fog,320,2013-03-09 13:43:00
8:53 AM,23.0,21.9,96,30.42,1.8,NW,3.5,-,N/A,,Overcast,310,2013-03-09 13:53:00
8:55 AM,23.0,21.9,96,30.40,3.0,NW,3.5,-,N/A,,Overcast,310,2013-03-09 13:55:00
9:17 AM,25.0,23.0,92,30.40,9.0,NW,3.5,-,N/A,,Scattered Clouds,320,2013-03-09 14:17:00
9:53 AM,27.0,25.0,92,30.42,10.0,WNW,5.8,-,N/A,,Clear,290,2013-03-09 14:53:00
10:53 AM,33.1,27.0,78,30.40,10.0,West,4.6,-,N/A,,Clear,260,2013-03-09 15:53:00
11:53 AM,37.0,26.1,65,30.38,10.0,West,5.8,-,N/A,,Clear,260,2013-03-09 16:53:00
12:53 PM,41.0,25.0,53,30.35,10.0,West,9.2,-,N/A,,Clear,280,2013-03-09 17:53:00
1:53 PM,43.0,26.1,51,30.34,10.0,WSW,9.2,-,N/A,,Clear,250,2013-03-09 18:53:00
2:53 PM,44.1,25.0,47,30.34,10.0,WSW,5.8,-,N/A,,Clear,240,2013-03-09 19:53:00
3:53 PM,45.0,25.0,46,30.33,10.0,West,8.1,-,N/A,,Clear,280,2013-03-09 20:53:00
4:53 PM,45.0,23.0,42,30.33,10.0,WSW,6.9,-,N/A,,Clear,250,2013-03-09 21:53:00
5:53 PM,41.0,25.0,53,30.34,10.0,Calm,Calm,-,N/A,,Clear,0,2013-03-09 22:53:00
6:53 PM,35.1,25.0,67,30.33,10.0,Calm,Calm,-,N/A,,Clear,0,2013-03-09 23:53:00
7:53 PM,32.0,25.0,75,30.34,10.0,Calm,Calm,-,N/A,,Clear,0,2013-03-10 00:53:00
8:53 PM,30.0,25.0,82,30.34,10.0,ENE,3.5,-,N/A,,Clear,70,2013-03-10 01:53:00
9:53 PM,28.0,24.1,85,30.34,10.0,East,4.6,-,N/A,,Clear,90,2013-03-10 02:53:00
10:53 PM,28.0,24.1,85,30.33,10.0,Calm,Calm,-,N/A,,Clear,0,2013-03-10 03:53:00
11:53 PM,28.0,23.0,81,30.33,10.0,ESE,4.6,-,N/A,,Clear,110,2013-03-10 04:53:00